�N����,����,�~����,�C��,���x,�C��,����,���ϕ���,�ő�u�ԕ���,�ő厞����,���˗�,�I�_���x,�n�����x,�ő啗���N��,DTYPE
"18/08/01","00:10",0.0,24.8,87.5,998.6,317.3,0.8,1.0,308.8,0.00,22.6,26.6,"00:00:24",1
"18/08/01","00:20",0.0,24.7,88.1,998.6,315.3,0.7,1.1,317.3,0.00,22.6,26.4,"00:16:08",1
"18/08/01","00:30",0.0,24.6,88.5,998.6,299.7,0.7,1.0,309.4,0.00,22.6,26.4,"00:23:12",1
"18/08/01","00:40",0.0,24.6,88.2,998.4,310.6,0.8,1.3,328.6,0.00,22.6,26.7,"00:34:24",1
"18/08/01","00:50",0.0,24.6,88.6,998.4,313.5,0.7,1.0,322.0,0.00,22.6,26.4,"00:48:16",1
"18/08/01","01:00",0.0,24.4,88.8,998.4,293.4,0.7,0.9,278.3,0.00,22.5,26.4,"00:56:08",1
"18/08/01","01:10",0.0,24.4,89.3,998.2,301.0,0.8,1.3,324.3,0.00,22.6,26.2,"01:05:36",1
"18/08/01","01:20",0.0,24.5,88.6,998.4,292.5,0.8,1.3,316.7,0.00,22.5,26.4,"01:18:32",1
"18/08/01","01:30",0.0,24.4,89.0,998.2,327.3,0.8,1.4,323.4,0.00,22.5,26.1,"01:20:24",1
"18/08/01","01:40",0.0,24.3,89.4,998.2,316.7,0.8,1.3,324.9,0.00,22.5,26.2,"01:36:48",1
"18/08/01","01:50",0.0,24.2,89.4,998.2,290.2,0.6,1.1,320.7,0.00,22.4,26.0,"01:42:00",1
"18/08/01","02:00",0.0,24.2,89.4,998.4,327.0,0.8,1.2,312.3,0.00,22.4,26.3,"01:56:40",1
"18/08/01","02:10",0.0,24.0,89.9,998.4,290.8,0.7,1.0,295.3,0.00,22.3,26.1,"02:07:44",1
"18/08/01","02:20",0.0,24.0,89.9,998.4,311.4,0.8,1.2,320.5,0.00,22.3,25.9,"02:16:48",1
"18/08/01","02:30",0.0,23.9,90.1,998.9,327.1,1.1,1.6,317.1,0.00,22.2,26.0,"02:28:00",1
"18/08/01","02:40",0.0,23.8,90.5,998.9,310.2,1.0,1.2,317.6,0.00,22.2,26.0,"02:30:24",1
"18/08/01","02:50",0.0,23.7,90.8,998.9,296.8,0.8,1.2,312.8,0.00,22.1,26.0,"02:48:56",1
"18/08/01","03:00",0.0,23.7,90.7,998.9,298.3,1.0,2.0,309.7,0.00,22.1,25.8,"02:58:16",1
"18/08/01","03:10",0.0,23.6,90.9,998.9,303.1,0.8,0.9,312.6,0.00,22.1,25.8,"03:01:44",1
"18/08/01","03:20",0.0,23.6,90.9,998.6,300.4,1.0,1.7,292.0,0.00,22.1,25.9,"03:16:24",1
"18/08/01","03:30",0.0,23.6,91.0,998.9,287.6,0.7,1.2,287.0,0.00,22.1,25.7,"03:21:44",1
"18/08/01","03:40",0.0,23.5,90.8,999.1,311.2,1.0,1.4,304.8,0.00,21.9,25.7,"03:34:48",1
"18/08/01","03:50",0.0,23.5,91.3,998.6,308.9,1.1,1.4,322.8,0.00,22.0,25.6,"03:46:24",1
"18/08/01","04:00",0.0,23.4,91.4,998.6,298.5,1.0,1.3,322.2,0.00,22.0,25.6,"03:54:00",1
"18/08/01","04:10",0.0,23.3,91.4,998.9,317.7,0.8,1.3,328.6,0.00,21.9,25.5,"04:04:40",1
"18/08/01","04:20",0.0,23.2,91.5,998.9,296.8,0.7,1.3,323.0,0.00,21.8,25.6,"04:18:48",1
"18/08/01","04:30",0.0,23.1,91.9,999.1,320.2,1.1,2.0,326.0,0.00,21.8,25.6,"04:29:44",1
"18/08/01","04:40",0.0,23.1,92.0,999.1,321.6,1.3,1.8,318.0,0.00,21.8,25.4,"04:37:20",1
"18/08/01","04:50",0.0,22.9,92.0,999.1,295.0,0.8,1.4,350.5,0.00,21.6,25.6,"04:41:28",1
"18/08/01","05:00",0.0,22.9,92.8,999.3,312.3,1.1,1.4,310.4,0.00,21.7,25.4,"04:52:00",1
"18/08/01","05:10",0.0,22.9,92.7,999.3,322.9,1.1,1.4,320.3,0.00,21.7,25.5,"05:03:44",1
"18/08/01","05:20",0.0,22.8,92.5,999.8,296.1,1.0,1.4,307.8,0.00,21.6,25.4,"05:18:32",1
"18/08/01","05:30",0.0,22.8,92.6,999.6,304.4,1.1,1.6,303.1,0.00,21.6,25.3,"05:24:56",1
"18/08/01","05:40",0.0,22.8,92.9,999.6,313.2,1.3,1.6,323.3,0.00,21.6,25.4,"05:30:56",1
"18/08/01","05:50",0.0,22.8,93.2,999.3,308.4,1.0,1.3,317.6,0.00,21.7,25.2,"05:45:52",1
"18/08/01","06:00",0.0,22.9,93.3,999.6,321.6,1.2,1.4,323.3,0.00,21.8,25.6,"05:54:08",1
"18/08/01","06:10",0.0,23.0,93.2,999.3,326.2,1.0,1.3,324.1,0.00,21.9,25.2,"06:00:24",1
"18/08/01","06:20",0.0,23.4,93.0,999.6,290.3,0.5,1.0,314.6,0.00,22.2,25.5,"06:18:00",1
"18/08/01","06:30",0.0,23.9,92.1,999.3,331.4,0.2,0.6,338.3,0.02,22.6,25.4,"06:29:52",1
"18/08/01","06:40",0.0,24.8,90.3,999.6,348.5,0.6,1.0,332.1,0.03,23.1,25.3,"06:35:44",1
"18/08/01","06:50",0.0,25.4,88.9,999.3,339.8,0.7,1.2,343.2,0.05,23.5,25.2,"06:41:36",1
"18/08/01","07:00",0.0,26.4,83.5,999.6,46.5,0.1,0.6,338.1,0.07,23.4,25.3,"06:52:08",1
"18/08/01","07:10",0.0,26.3,82.0,999.3,348.3,0.7,1.3,350.4,0.09,23.0,25.5,"07:01:52",1
"18/08/01","07:20",0.0,27.2,80.7,999.3,344.3,0.2,0.8,357.4,0.11,23.6,25.5,"07:10:40",1
"18/08/01","07:30",0.0,27.3,77.2,998.4,8.5,0.5,1.2,347.8,0.13,23.0,25.3,"07:26:08",1
"18/08/01","07:40",0.0,27.9,74.3,998.9,13.7,0.3,1.0,350.1,0.16,22.9,25.4,"07:30:16",1
"18/08/01","07:50",0.0,28.5,71.7,998.9,29.6,0.5,1.1,35.9,0.18,22.9,25.4,"07:43:28",1
"18/08/01","08:00",0.0,28.8,71.1,999.3,28.0,0.6,1.7,346.5,0.21,23.1,25.7,"07:52:48",1
"18/08/01","08:10",0.0,29.0,70.6,999.3,53.8,0.7,1.4,111.1,0.23,23.2,25.4,"08:01:20",1
"18/08/01","08:20",0.0,29.7,71.2,1000.0,80.0,0.6,1.7,27.0,0.25,24.0,25.8,"08:15:04",1
"18/08/01","08:30",0.0,29.8,66.0,1000.3,109.3,0.6,2.0,24.7,0.28,22.8,25.7,"08:27:36",1
"18/08/01","08:40",0.0,30.1,65.6,1000.3,127.9,0.7,2.4,153.9,0.30,23.0,25.6,"08:39:36",1
"18/08/01","08:50",0.0,30.5,64.2,1000.3,115.0,1.0,2.2,150.4,0.32,23.0,25.7,"08:40:08",1
"18/08/01","09:00",0.0,31.0,66.6,1000.5,139.3,0.8,2.4,141.6,0.34,24.1,26.2,"08:58:40",1
"18/08/01","09:10",0.0,31.1,64.7,1000.8,135.3,1.0,1.8,130.0,0.37,23.7,26.3,"09:03:44",1
"18/08/01","09:20",0.0,31.1,63.1,1000.8,113.7,0.7,2.2,66.5,0.39,23.3,26.3,"09:17:36",1
"18/08/01","09:30",0.0,31.3,61.6,1000.8,138.6,1.0,2.5,224.2,0.41,23.1,26.5,"09:29:36",1
"18/08/01","09:40",0.0,31.4,62.8,1000.8,187.2,1.0,2.4,224.3,0.42,23.5,26.3,"09:30:32",1
"18/08/01","09:50",0.0,31.5,62.0,1000.8,214.4,0.7,2.2,227.3,0.44,23.4,26.2,"09:43:36",1
"18/08/01","10:00",0.0,31.7,61.9,1001.2,195.7,1.1,2.5,220.6,0.46,23.5,26.5,"09:57:12",1
"18/08/01","10:10",0.0,32.5,61.6,1001.0,122.4,1.1,2.1,191.4,0.47,24.2,26.7,"10:01:36",1
"18/08/01","10:20",0.0,32.5,57.9,1001.2,74.4,0.8,1.9,38.8,0.49,23.2,26.9,"10:14:56",1
"18/08/01","10:30",0.0,32.8,57.1,1001.2,16.9,1.0,2.2,8.2,0.50,23.2,26.9,"10:22:40",1
"18/08/01","10:40",0.0,33.2,57.9,1001.2,15.0,1.1,2.6,6.1,0.51,23.8,27.1,"10:36:32",1
"18/08/01","10:50",0.0,33.4,56.2,1001.2,60.0,0.6,1.8,3.8,0.52,23.5,27.2,"10:42:16",1
"18/08/01","11:00",0.0,33.6,57.7,1001.2,111.0,1.0,2.2,149.4,0.53,24.1,27.3,"10:58:08",1
"18/08/01","11:10",0.0,34.1,53.2,1001.0,170.8,0.7,2.9,216.4,0.55,23.3,27.5,"11:04:32",1
"18/08/01","11:20",0.0,33.4,55.5,1001.0,162.9,1.5,3.7,115.7,0.56,23.3,27.9,"11:12:40",1
"18/08/01","11:30",0.0,34.0,53.7,1000.8,43.2,0.8,2.2,352.9,0.58,23.3,27.9,"11:27:36",1
"18/08/01","11:40",0.0,33.8,54.0,1001.0,341.8,1.0,3.3,338.7,0.58,23.2,28.1,"11:30:56",1
"18/08/01","11:50",0.0,34.4,54.1,1001.0,167.7,0.8,2.4,195.5,0.59,23.8,28.4,"11:46:32",1
"18/08/01","12:00",0.0,34.5,56.2,1000.8,149.9,1.6,2.9,142.6,0.58,24.5,28.6,"11:50:16",1
"18/08/01","12:10",0.0,34.7,53.1,1001.0,159.8,1.2,3.4,137.9,0.58,23.8,29.0,"12:02:16",1
"18/08/01","12:20",0.0,33.1,57.0,1000.5,208.8,1.1,2.2,169.3,0.11,23.5,28.9,"12:11:36",1
"18/08/01","12:30",0.0,34.2,56.9,999.8,272.3,0.7,1.9,231.3,0.42,24.5,29.0,"12:20:40",1
"18/08/01","12:40",0.0,34.7,55.1,1000.0,168.2,1.2,4.1,212.9,0.61,24.4,29.2,"12:38:08",1
"18/08/01","12:50",0.0,35.0,53.7,1000.0,198.5,1.0,2.5,180.7,0.61,24.2,29.6,"12:47:44",1
"18/08/01","13:00",0.0,34.7,53.9,1000.0,231.6,1.5,3.9,222.7,0.58,24.0,29.7,"12:57:04",1
"18/08/01","13:10",0.0,35.2,53.2,999.8,210.1,1.3,3.9,203.4,0.59,24.3,29.7,"13:09:36",1
"18/08/01","13:20",0.0,35.7,53.8,1000.0,173.0,1.3,3.4,194.4,0.58,24.9,29.9,"13:13:44",1
"18/08/01","13:30",0.0,35.4,52.6,1000.8,6.0,0.7,2.2,335.0,0.55,24.3,30.0,"13:27:44",1
"18/08/01","13:40",0.0,33.6,54.6,1000.0,285.1,0.8,1.9,247.4,0.12,23.2,29.8,"13:39:44",1
"18/08/01","13:50",0.0,33.6,55.5,999.3,223.4,1.2,4.5,220.9,0.11,23.5,29.8,"13:40:24",1
"18/08/01","14:00",0.0,34.2,53.4,998.9,282.5,0.6,1.8,306.9,0.31,23.4,29.8,"13:52:24",1
"18/08/01","14:10",0.0,34.1,52.8,999.3,320.2,1.1,3.4,330.9,0.29,23.1,29.9,"14:03:20",1
"18/08/01","14:20",0.0,34.0,52.1,998.9,256.7,1.0,3.4,228.1,0.09,22.8,29.8,"14:19:44",1
"18/08/01","14:30",0.0,35.6,48.6,998.4,214.4,1.3,3.4,203.2,0.40,23.1,29.6,"14:28:40",1
"18/08/01","14:40",0.0,35.6,50.7,998.6,281.7,1.1,3.2,324.9,0.42,23.8,29.8,"14:39:06",1
"18/08/01","14:50",0.0,35.5,49.5,998.4,324.4,1.7,5.6,341.6,0.40,23.4,29.9,"14:43:12",1
"18/08/01","15:00",0.0,36.4,49.6,998.9,254.9,1.0,2.6,14.0,0.48,24.2,29.8,"14:52:00",1
"18/08/01","15:10",0.0,35.1,50.6,998.9,235.4,1.6,4.0,220.9,0.35,23.4,30.0,"15:02:40",1
"18/08/01","15:20",0.0,35.7,48.4,998.9,239.1,1.7,3.1,229.2,0.42,23.2,30.3,"15:12:08",1
"18/08/01","15:30",0.0,36.0,49.3,998.9,238.5,1.6,3.5,223.7,0.40,23.7,30.2,"15:23:16",1
"18/08/01","15:40",0.0,35.6,48.3,998.6,238.3,1.6,4.5,225.4,0.37,23.0,30.3,"15:35:08",1
"18/08/01","15:50",0.0,35.5,48.4,998.6,238.3,1.6,4.0,194.8,0.35,23.0,30.3,"15:49:36",1
"18/08/01","16:00",0.0,36.3,46.0,998.6,214.4,2.0,4.4,227.5,0.33,22.9,30.4,"15:52:56",1
"18/08/01","16:10",0.0,36.3,45.6,998.4,215.0,2.7,5.1,228.1,0.32,22.7,30.2,"16:01:44",1
"18/08/01","16:20",0.0,36.3,48.3,998.2,222.0,2.1,4.5,221.4,0.26,23.7,30.2,"16:18:08",1
"18/08/01","16:30",0.0,36.5,47.0,997.9,246.2,1.2,2.9,223.7,0.27,23.4,30.3,"16:20:16",1
"18/08/01","16:40",0.0,36.7,45.2,998.2,269.7,1.2,3.4,340.1,0.24,22.9,30.3,"16:34:42",1
"18/08/01","16:50",0.0,36.4,46.0,998.4,304.4,1.2,4.4,349.3,0.22,23.0,30.3,"16:43:36",1
"18/08/01","17:00",0.0,35.8,47.9,998.2,316.0,1.6,4.1,330.2,0.18,23.1,30.2,"16:54:56",1
"18/08/01","17:10",0.0,35.4,49.3,998.2,281.1,1.2,2.9,344.3,0.13,23.2,30.3,"17:03:12",1
"18/08/01","17:20",0.0,35.5,50.5,997.9,265.2,1.1,2.6,214.9,0.14,23.7,30.2,"17:17:04",1
"18/08/01","17:30",0.0,35.2,50.6,998.2,258.3,1.2,2.6,222.0,0.11,23.4,30.3,"17:25:28",1
"18/08/01","17:40",0.0,35.1,50.9,998.2,262.2,1.2,3.1,200.2,0.09,23.4,30.2,"17:31:04",1
"18/08/01","17:50",0.0,34.8,51.6,997.9,246.3,1.2,3.4,230.7,0.03,23.4,30.1,"17:46:16",1
"18/08/01","18:00",0.0,34.3,52.6,997.9,263.0,1.2,4.9,229.3,0.02,23.3,30.0,"17:54:56",1
"18/08/01","18:10",0.0,33.7,53.9,997.7,238.8,1.6,3.7,230.1,0.01,23.1,29.9,"18:00:16",1
"18/08/01","18:20",0.0,33.4,55.4,997.4,242.9,1.3,4.1,221.1,0.01,23.3,30.0,"18:19:28",1
"18/08/01","18:30",0.0,33.0,56.4,997.4,260.7,1.1,3.3,235.8,0.02,23.2,29.8,"18:23:04",1
"18/08/01","18:40",0.0,32.7,57.5,997.4,268.2,1.2,4.9,223.9,0.01,23.3,29.6,"18:38:48",1
"18/08/01","18:50",0.0,32.4,58.1,997.0,255.0,1.1,2.9,230.6,0.00,23.1,29.5,"18:40:08",1
"18/08/01","19:00",0.0,32.2,58.6,997.2,260.4,1.3,4.9,226.1,0.00,23.1,29.5,"18:51:12",1
"18/08/01","19:10",0.0,32.0,59.2,996.7,263.5,1.2,3.5,308.3,0.00,23.1,29.6,"19:00:02",1
"18/08/01","19:20",0.0,31.7,60.0,997.0,276.5,1.1,3.3,313.7,0.00,23.0,29.3,"19:10:08",1
"18/08/01","19:30",0.0,31.4,60.9,997.0,287.7,0.6,2.0,211.0,0.00,23.0,29.2,"19:25:28",1
"18/08/01","19:40",0.0,31.2,62.0,996.5,1.1,0.5,1.6,9.6,0.00,23.1,29.2,"19:33:12",1
"18/08/01","19:50",0.0,30.8,63.2,997.0,55.8,0.7,1.7,20.2,0.00,23.0,28.8,"19:49:20",1
"18/08/01","20:00",0.0,30.6,64.3,997.2,44.7,0.6,1.6,25.1,0.00,23.1,28.9,"19:59:28",1
"18/08/01","20:10",0.0,30.2,65.7,997.0,9.7,1.0,2.4,340.3,0.00,23.1,28.7,"20:06:00",1
"18/08/01","20:20",0.0,29.9,66.8,997.0,3.7,0.7,2.1,349.8,0.00,23.1,28.6,"20:19:28",1
"18/08/01","20:30",0.0,29.6,68.3,997.2,3.5,1.1,2.6,329.5,0.00,23.2,28.6,"20:24:08",1
"18/08/01","20:40",0.0,29.4,68.3,997.7,328.8,1.1,3.3,343.6,0.00,23.0,28.4,"20:34:48",1
"18/08/01","20:50",0.0,29.4,68.5,997.7,305.9,1.0,1.9,325.0,0.00,23.0,28.4,"20:41:20",1
"18/08/01","21:00",0.0,29.3,69.2,998.2,301.9,0.5,1.4,254.4,0.00,23.1,28.2,"20:52:16",1
"18/08/01","21:10",0.0,28.8,71.0,997.7,309.3,0.3,1.3,5.2,0.00,23.1,28.2,"21:00:48",1
"18/08/01","21:20",0.0,28.2,73.8,998.2,342.3,0.6,1.3,340.6,0.00,23.1,28.1,"21:13:12",1
"18/08/01","21:30",0.0,27.9,75.1,998.4,295.6,0.3,0.9,307.9,0.00,23.1,28.0,"21:20:32",1
"18/08/01","21:40",0.0,27.6,76.4,998.4,293.5,0.6,1.7,224.4,0.00,23.1,27.9,"21:39:28",1
"18/08/01","21:50",0.0,28.0,75.0,998.4,328.4,0.8,1.6,312.2,0.00,23.2,28.1,"21:45:20",1
"18/08/01","22:00",0.0,28.0,74.3,998.6,328.2,1.0,2.0,340.9,0.00,23.0,27.8,"21:57:36",1
"18/08/01","22:10",0.0,27.8,74.7,998.4,311.5,1.0,1.7,237.5,0.00,22.9,27.9,"22:07:44",1
"18/08/01","22:20",0.0,27.8,75.4,998.4,325.1,0.8,1.8,344.5,0.00,23.1,27.7,"22:13:04",1
"18/08/01","22:30",0.0,27.5,77.2,998.4,342.5,1.1,1.8,335.6,0.00,23.2,27.8,"22:21:04",1
"18/08/01","22:40",0.0,27.2,78.3,998.6,338.0,1.2,2.0,331.1,0.00,23.1,27.6,"22:32:00",1
"18/08/01","22:50",0.0,27.0,79.5,998.9,338.6,1.5,2.5,340.3,0.00,23.2,27.4,"22:43:28",1
"18/08/01","23:00",0.0,26.8,80.7,998.9,331.4,1.6,2.9,335.0,0.00,23.2,27.4,"22:51:04",1
"18/08/01","23:10",0.0,26.6,81.1,998.6,307.9,1.2,2.1,318.1,0.00,23.1,27.3,"23:01:28",1
"18/08/01","23:20",0.0,26.6,81.3,998.9,298.3,1.0,2.1,331.7,0.00,23.2,27.3,"23:15:12",1
"18/08/01","23:30",0.0,26.5,81.3,998.9,267.7,0.5,1.2,317.5,0.00,23.1,27.3,"23:20:56",1
"18/08/01","23:40",0.0,26.2,81.9,999.1,248.7,0.2,0.8,234.2,0.00,22.9,27.2,"23:35:44",1
"18/08/01","23:50",0.0,25.9,83.3,999.1,309.9,1.0,1.6,326.1,0.00,22.9,27.0,"23:46:24",1
"18/08/01","24:00",0.0,25.8,84.3,999.1,311.3,1.1,1.7,340.7,0.00,23.0,27.1,"23:52:24",1
